DW8313 Weather Reports


time (UTC)temp
C
wind
direction
speed
KPH
gust
KPH
rain 1hr
cm
rain 24hr
cm
rain mn
cm
humidity
%
barometer
mb
20260507021204 19 316 3.2 8.0 0.00 0.00 0.00 53 1015.6
20260507021004 19 320 1.6 8.0 0.00 0.00 0.00 52 1015.6
20260507020804 19 317 1.6 6.4 0.00 0.00 0.00 52 1015.6
20260507020604 19 319 1.6 6.4 0.00 0.00 0.00 52 1015.6
20260507020404 19 315 1.6 6.4 0.00 0.00 0.00 51 1015.5
20260507020225 20 312 1.6 8.0 0.00 0.00 0.00 52 1015.5
20260507020025 20 307 1.6 9.7 0.00 0.00 0.00 52 1015.4
20260507015804 20 307 1.6 9.7 0.00 0.00 0.00 51 1015.5
20260507015604 20 305 3.2 9.7 0.00 0.00 0.00 51 1015.5
20260507015404 20 302 3.2 9.7 0.00 0.00 0.00 51 1015.4
20260507015204 20 304 3.2 8.0 0.00 0.00 0.00 51 1015.5
20260507015004 20 305 1.6 8.0 0.00 0.00 0.00 51 1015.5
20260507014804 20 306 1.6 8.0 0.00 0.00 0.00 51 1015.5
20260507014604 20 307 1.6 8.0 0.00 0.00 0.00 50 1015.5
20260507014404 20 305 1.6 8.0 0.00 0.00 0.00 50 1015.5
20260507014204 20 302 1.6 8.0 0.00 0.00 0.00 49 1015.4
20260507014004 20 309 1.6 8.0 0.00 0.00 0.00 49 1015.5
20260507013825 20 309 1.6 8.0 0.00 0.00 0.00 49 1015.4
20260507013604 20 311 3.2 9.7 0.00 0.00 0.00 49 1015.5
20260507013404 20 313 3.2 9.7 0.00 0.00 0.00 49 1015.4
20260507013204 20 309 3.2 9.7 0.00 0.00 0.00 48 1015.4
20260507013025 20 300 3.2 9.7 0.00 0.00 0.00 48 1015.4
20260507012804 20 293 4.8 9.7 0.00 0.00 0.00 48 1015.5
20260507012604 20 290 3.2 9.7 0.00 0.00 0.00 49 1015.4
20260507012404 20 290 3.2 9.7 0.00 0.00 0.00 48 1015.4
20260507012204 20 291 3.2 9.7 0.00 0.00 0.00 47 1015.4
20260507012004 21 293 1.6 9.7 0.00 0.00 0.00 47 1015.4
20260507011804 21 310 1.6 8.0 0.00 0.00 0.00 47 1015.4
20260507011625 21 322 1.6 8.0 0.00 0.00 0.00 47 1015.4
20260507011404 21 320 1.6 8.0 0.00 0.00 0.00 46 1015.4
20260507011204 21 313 1.6 8.0 0.00 0.00 0.00 46 1015.4
20260507011025 21 307 3.2 8.0 0.00 0.00 0.00 45 1015.4
20260507010825 21 305 3.2 8.0 0.00 0.00 0.00 45 1015.4
20260507010625 21 297 3.2 9.7 0.00 0.00 0.00 45 1015.4
20260507010404 21 294 3.2 9.7 0.00 0.00 0.00 46 1015.4
20260507010225 21 301 3.2 11.3 0.00 0.00 0.00 45 1015.4
20260507010025 21 303 3.2 11.3 0.00 0.00 0.00 45 1015.4
20260507005804 21 298 3.2 11.3 0.00 0.00 0.00 45 1015.4
20260507005604 21 300 3.2 11.3 0.00 0.00 0.00 45 1015.4
20260507005425 21 305 3.2 11.3 0.00 0.00 0.00 45 1015.4
20260507005204 21 299 1.6 11.3 0.00 0.00 0.00 45 1015.4
20260507005004 21 302 1.6 11.3 0.00 0.00 0.00 43 1015.3
20260507004805 21 300 1.6 8.0 0.00 0.00 0.00 43 1015.4
20260507004604 21 291 1.6 8.0 0.00 0.00 0.00 44 1015.4
20260507004404 21 287 1.6 8.0 0.00 0.00 0.00 45 1015.4
20260507004204 21 286 3.2 8.0 0.00 0.00 0.00 44 1015.3
20260507004004 21 289 3.2 8.0 0.00 0.00 0.00 44 1015.3
20260507003804 21 296 3.2 8.0 0.00 0.00 0.00 43 1015.3
20260507003604 21 295 3.2 11.3 0.00 0.00 0.00 45 1015.3
20260507003404 21 291 4.8 12.9 0.00 0.00 0.00 43 1015.3
20260507003225 21 290 4.8 12.9 0.00 0.00 0.00 44 1015.3
20260507003025 21 287 4.8 12.9 0.00 0.00 0.00 45 1015.3
20260507002825 21 285 4.8 12.9 0.00 0.00 0.00 44 1015.3
20260507002604 21 287 4.8 12.9 0.00 0.00 0.00 44 1015.3
20260507002404 21 291 3.2 12.9 0.00 0.00 0.00 43 1015.3
20260507002204 21 297 3.2 12.9 0.00 0.00 0.00 43 1015.2
20260507002004 21 297 3.2 12.9 0.00 0.00 0.00 43 1015.2
20260507001804 21 298 4.8 12.9 0.00 0.00 0.00 43 1015.2
20260507001604 21 295 4.8 12.9 0.00 0.00 0.00 43 1015.2
20260507001404 21 294 4.8 12.9 0.00 0.00 0.00 43 1015.3
20260507001204 21 292 4.8 12.9 0.00 0.00 0.00 43 1015.2
20260507001004 21 295 4.8 11.3 0.00 0.00 0.00 42 1015.3
20260507000804 21 297 3.2 14.5 0.00 0.00 0.00 43 1015.2
20260507000604 21 302 3.2 14.5 0.00 0.00 0.00 43 1015.2
20260507000427 21 303 3.2 14.5 0.00 0.00 0.00 42 1015.2
20260507000205 21 301 3.2 14.5 0.00 0.00 0.00 44 1015.1
20260507000004 21 298 4.8 14.5 0.00 0.00 0.00 43 1015.1
20260506235804 21 293 4.8 11.3 0.00 0.00 0.00 44 1015.1
20260506235604 21 294 4.8 12.9 0.00 0.00 0.00 44 1015.2
20260506235425 21 295 4.8 12.9 0.00 0.00 0.00 43 1015.1
20260506235204 21 298 4.8 12.9 0.00 0.00 0.00 43 1015.2
20260506235004 21 302 4.8 12.9 0.00 0.00 0.00 44 1015.2
20260506234804 21 301 3.2 12.9 0.00 0.00 0.00 44 1015.2
20260506234604 21 302 3.2 11.3 0.00 0.00 0.00 43 1015.1
20260506234404 21 300 3.2 11.3 0.00 0.00 0.00 43 1015.2
20260506234225 21 296 3.2 9.7 0.00 0.00 0.00 44 1015.1
20260506234025 21 295 4.8 14.5 0.00 0.00 0.00 44 1015.1
20260506233825 21 296 4.8 14.5 0.00 0.00 0.00 44 1015.2
20260506233604 21 292 6.4 14.5 0.00 0.00 0.00 44 1015.2
20260506233404 21 293 6.4 14.5 0.00 0.00 0.00 44 1015.2
20260506233204 21 292 6.4 14.5 0.00 0.00 0.00 44 1015.2
20260506233004 21 295 6.4 14.5 0.00 0.00 0.00 43 1015.2
20260506232825 21 298 4.8 14.5 0.00 0.00 0.00 44 1015.2
20260506232604 21 300 4.8 14.5 0.00 0.00 0.00 43 1015.2
20260506232404 21 301 4.8 14.5 0.00 0.00 0.00 43 1015.3
20260506232204 21 305 4.8 12.9 0.00 0.00 0.00 42 1015.3
20260506232004 21 299 4.8 12.9 0.00 0.00 0.00 43 1015.2
20260506231804 21 298 4.8 12.9 0.00 0.00 0.00 44 1015.2
20260506231604 21 298 4.8 12.9 0.00 0.00 0.00 44 1015.3
20260506231404 21 296 4.8 12.9 0.00 0.00 0.00 44 1015.2
20260506231204 21 291 3.2 11.3 0.00 0.00 0.00 44 1015.3
20260506231004 21 276 3.2 11.3 0.00 0.00 0.00 43 1015.3
20260506230804 21 274 3.2 11.3 0.00 0.00 0.00 43 1015.4
20260506230604 21 259 3.2 11.3 0.00 0.00 0.00 44 1015.4
20260506230425 21 257 3.2 11.3 0.00 0.00 0.00 44 1015.3
20260506230204 21 272 3.2 11.3 0.00 0.00 0.00 43 1015.4
20260506230004 21 275 4.8 14.5 0.00 0.00 0.00 44 1015.4
20260506225804 21 281 4.8 14.5 0.00 0.00 0.00 43 1015.4
20260506225604 21 289 4.8 14.5 0.00 0.00 0.00 44 1015.5
20260506225404 21 287 4.8 14.5 0.00 0.00 0.00 44 1015.5
20260506225204 21 285 4.8 14.5 0.00 0.00 0.00 43 1015.5
20260506225004 21 294 4.8 11.3 0.00 0.00 0.00 44 1015.5
20260506224804 21 290 4.8 11.3 0.00 0.00 0.00 44 1015.5
20260506224604 21 293 4.8 11.3 0.00 0.00 0.00 43 1015.6
20260506224404 21 293 3.2 11.3 0.00 0.00 0.00 43 1015.5
20260506224204 21 293 3.2 11.3 0.00 0.00 0.00 43 1015.6
20260506224025 21 294 3.2 8.0 0.00 0.00 0.00 44 1015.5
20260506223804 21 293 3.2 8.0 0.00 0.00 0.00 45 1015.5
20260506223605 21 291 3.2 9.7 0.00 0.00 0.00 43 1015.5
20260506223404 21 290 3.2 9.7 0.00 0.00 0.00 44 1015.6
20260506223204 21 285 3.2 9.7 0.00 0.00 0.00 44 1015.6
20260506223025 21 285 3.2 9.7 0.00 0.00 0.00 43 1015.6
20260506222804 21 291 3.2 9.7 0.00 0.00 0.00 44 1015.7
20260506222604 21 300 3.2 9.7 0.00 0.00 0.00 44 1015.8
20260506222404 21 310 3.2 9.7 0.00 0.00 0.00 44 1015.8
20260506222204 20 311 3.2 9.7 0.00 0.00 0.00 46 1015.8
20260506222004 20 314 3.2 8.0 0.00 0.00 0.00 45 1015.8
20260506221804 20 312 3.2 8.0 0.00 0.00 0.00 44 1015.9
20260506221604 20 285 3.2 8.0 0.00 0.00 0.00 45 1015.9
20260506221404 20 274 3.2 8.0 0.00 0.00 0.00 45 1015.9
20260506221204 20 272 3.2 9.7 0.00 0.00 0.00 44 1015.9
20260506221004 20 266 3.2 9.7 0.00 0.00 0.00 44 1016.0
20260506220825 20 275 3.2 9.7 0.00 0.00 0.00 45 1016.0
20260506220604 20 286 3.2 11.3 0.00 0.00 0.00 46 1016.0
20260506220425 20 285 3.2 11.3 0.00 0.00 0.00 46 1016.0
20260506220204 20 282 3.2 11.3 0.00 0.00 0.00 46 1016.0
20260506220004 20 284 3.2 11.3 0.00 0.00 0.00 45 1016.0
20260506215804 20 286 3.2 12.9 0.00 0.00 0.00 47 1016.1
20260506215604 20 289 3.2 12.9 0.00 0.00 0.00 48 1016.0
20260506215404 20 291 3.2 12.9 0.00 0.00 0.00 46 1016.1
20260506215204 20 286 4.8 12.9 0.00 0.00 0.00 47 1016.1
20260506215004 20 280 3.2 12.9 0.00 0.00 0.00 47 1016.1
20260506214804 20 277 3.2 11.3 0.00 0.00 0.00 46 1016.1
20260506214604 20 270 3.2 11.3 0.00 0.00 0.00 46 1016.2
20260506214404 20 259 4.8 12.9 0.00 0.00 0.00 46 1016.2
20260506214204 20 261 3.2 12.9 0.00 0.00 0.00 47 1016.2
20260506214004 20 261 3.2 12.9 0.00 0.00 0.00 47 1016.2
20260506213804 20 240 3.2 12.9 0.00 0.00 0.00 46 1016.2
20260506213625 20 231 3.2 12.9 0.00 0.00 0.00 46 1016.2
20260506213404 20 242 3.2 11.3 0.00 0.00 0.00 49 1016.3
20260506213204 20 256 3.2 11.3 0.00 0.00 0.00 46 1016.3
20260506213004 20 264 4.8 11.3 0.00 0.00 0.00 46 1016.4
20260506212825 20 271 4.8 11.3 0.00 0.00 0.00 47 1016.4
20260506212604 20 283 3.2 11.3 0.00 0.00 0.00 47 1016.5
20260506212404 20 291 3.2 11.3 0.00 0.00 0.00 48 1016.5
20260506212204 20 289 3.2 11.3 0.00 0.00 0.00 47 1016.5
20260506212025 20 293 3.2 11.3 0.00 0.00 0.00 47 1016.5
20260506211804 20 294 4.8 11.3 0.00 0.00 0.00 49 1016.5
20260506211604 20 295 4.8 11.3 0.00 0.00 0.00 48 1016.5
20260506211425 20 295 4.8 11.3 0.00 0.00 0.00 48 1016.5
20260506211204 20 293 4.8 9.7 0.00 0.00 0.00 48 1016.6
20260506211004 20 293 4.8 12.9 0.00 0.00 0.00 49 1016.5
20260506210804 20 297 4.8 12.9 0.00 0.00 0.00 49 1016.5
20260506210604 20 294 4.8 12.9 0.00 0.00 0.00 47 1016.5
20260506210404 20 291 4.8 12.9 0.00 0.00 0.00 49 1016.6
20260506210204 20 289 4.8 12.9 0.00 0.00 0.00 48 1016.6
20260506210004 20 288 3.2 11.3 0.00 0.00 0.00 48 1016.6
20260506205804 20 284 3.2 11.3 0.00 0.00 0.00 50 1016.7
20260506205604 20 284 3.2 11.3 0.00 0.00 0.00 47 1016.7
20260506205425 20 280 3.2 11.3 0.00 0.00 0.00 47 1016.6
20260506205204 20 277 3.2 11.3 0.00 0.00 0.00 46 1016.7
20260506205025 20 261 3.2 9.7 0.00 0.00 0.00 46 1016.7
20260506204804 20 206 3.2 9.7 0.00 0.00 0.00 48 1016.7
20260506204604 20 182 3.2 9.7 0.00 0.00 0.00 48 1016.7
20260506204404 20 209 3.2 9.7 0.00 0.00 0.00 49 1016.7
20260506204204 20 241 4.8 11.3 0.00 0.00 0.00 48 1016.6
20260506204025 20 267 4.8 11.3 0.00 0.00 0.00 46 1016.7
20260506203804 19 285 4.8 11.3 0.00 0.00 0.00 48 1016.7
20260506203604 20 289 3.2 11.3 0.00 0.00 0.00 48 1016.7
20260506203404 20 285 3.2 11.3 0.00 0.00 0.00 47 1016.7
20260506203204 20 282 1.6 9.7 0.00 0.00 0.00 48 1016.7
20260506203004 20 257 1.6 8.0 0.00 0.00 0.00 47 1016.7
20260506202804 19 239 1.6 6.4 0.00 0.00 0.00 48 1016.8
20260506202604 19 252 1.6 6.4 0.00 0.00 0.00 48 1016.9
20260506202425 19 256 1.6 6.4 0.00 0.00 0.00 47 1016.9
20260506202204 19 246 1.6 6.4 0.00 0.00 0.00 48 1016.9
20260506202004 19 257 1.6 6.4 0.00 0.00 0.00 47 1016.9
20260506201804 19 282 1.6 8.0 0.00 0.00 0.00 49 1017.0
20260506201604 18 292 1.6 8.0 0.00 0.00 0.00 50 1017.0
20260506201404 18 280 3.2 8.0 0.00 0.00 0.00 49 1017.0
20260506201204 18 274 3.2 8.0 0.00 0.00 0.00 49 1017.0
20260506201004 18 265 3.2 8.0 0.00 0.00 0.00 49 1017.0
20260506200804 18 252 3.2 8.0 0.00 0.00 0.00 51 1017.1
20260506200604 18 269 3.2 9.7 0.00 0.00 0.00 50 1017.1
20260506200404 18 286 3.2 11.3 0.00 0.00 0.00 50 1017.1
20260506200204 18 303 3.2 11.3 0.00 0.00 0.00 50 1017.3
20260506200004 18 309 3.2 11.3 0.00 0.00 0.00 51 1017.3
20260506195804 18 306 4.8 11.3 0.00 0.00 0.00 51 1017.2
20260506195604 18 300 4.8 11.3 0.00 0.00 0.00 52 1017.3
20260506195404 18 291 3.2 11.3 0.00 0.00 0.00 51 1017.3
20260506195204 18 270 3.2 11.3 0.00 0.00 0.00 50 1017.3
20260506195004 18 247 3.2 11.3 0.00 0.00 0.00 50 1017.3
20260506194804 18 249 3.2 9.7 0.00 0.00 0.00 52 1017.3
20260506194604 18 258 3.2 9.7 0.00 0.00 0.00 50 1017.4
20260506194425 18 270 3.2 9.7 0.00 0.00 0.00 52 1017.4
20260506194204 17 281 3.2 9.7 0.00 0.00 0.00 53 1017.4
20260506194004 17 283 3.2 9.7 0.00 0.00 0.00 52 1017.4
20260506193804 17 278 3.2 9.7 0.00 0.00 0.00 53 1017.4
20260506193604 17 274 3.2 9.7 0.00 0.00 0.00 53 1017.4
20260506193404 17 280 3.2 9.7 0.00 0.00 0.00 52 1017.4
20260506193225 17 281 3.2 9.7 0.00 0.00 0.00 53 1017.4
20260506193004 17 281 3.2 9.7 0.00 0.00 0.00 53 1017.4
20260506192804 17 283 3.2 9.7 0.00 0.00 0.00 52 1017.4
20260506192625 17 286 3.2 9.7 0.00 0.00 0.00 54 1017.4
20260506192404 17 291 3.2 8.0 0.00 0.00 0.00 53 1017.5
20260506192204 17 288 3.2 8.0 0.00 0.00 0.00 53 1017.5
20260506192004 17 286 3.2 8.0 0.00 0.00 0.00 53 1017.6
20260506191804 17 273 3.2 8.0 0.00 0.00 0.00 53 1017.6
20260506191604 17 262 1.6 8.0 0.00 0.00 0.00 54 1017.6
20260506191404 17 252 1.6 8.0 0.00 0.00 0.00 54 1017.6
20260506191204 16 237 1.6 9.7 0.00 0.00 0.00 54 1017.6
20260506191004 16 256 3.2 9.7 0.00 0.00 0.00 54 1017.7
20260506190804 16 271 3.2 9.7 0.00 0.00 0.00 55 1017.7
20260506190604 16 273 3.2 9.7 0.00 0.00 0.00 55 1017.8
20260506190404 16 278 3.2 9.7 0.00 0.00 0.00 55 1017.7
20260506190204 16 287 4.8 11.3 0.00 0.00 0.00 55 1017.7
20260506190004 16 292 4.8 11.3 0.00 0.00 0.00 56 1017.7
20260506185804 16 296 3.2 11.3 0.00 0.00 0.00 56 1017.8
20260506185604 16 298 3.2 11.3 0.00 0.00 0.00 56 1017.8
20260506185404 16 296 3.2 11.3 0.00 0.00 0.00 57 1017.8
20260506185204 16 293 3.2 11.3 0.00 0.00 0.00 58 1017.8
20260506185025 16 288 1.6 9.7 0.00 0.00 0.00 56 1017.8
20260506184804 16 282 1.6 9.7 0.00 0.00 0.00 57 1017.9
20260506184625 16 282 1.6 11.3 0.00 0.00 0.00 58 1018.0
20260506184404 16 285 3.2 11.3 0.00 0.00 0.00 57 1017.9
20260506184225 16 287 3.2 11.3 0.00 0.00 0.00 57 1017.9
20260506184025 15 288 3.2 11.3 0.00 0.00 0.00 57 1018.0
20260506183804 15 286 4.8 11.3 0.00 0.00 0.00 57 1018.0
20260506183604 15 287 4.8 11.3 0.00 0.00 0.00 58 1017.9
20260506183404 15 289 3.2 9.7 0.00 0.00 0.00 59 1017.9
20260506183204 15 289 4.8 9.7 0.00 0.00 0.00 59 1017.9
20260506183005 15 291 3.2 9.7 0.00 0.00 0.00 59 1018.0
20260506182804 15 297 3.2 9.7 0.00 0.00 0.00 58 1018.0
20260506182604 15 303 3.2 9.7 0.00 0.00 0.00 60 1018.0
20260506182425 15 302 4.8 9.7 0.00 0.00 0.00 59 1018.0
20260506182204 15 305 3.2 9.7 0.00 0.00 0.00 60 1018.1
20260506182004 15 302 3.2 9.7 0.00 0.00 0.00 60 1018.1
20260506181804 15 297 3.2 9.7 0.00 0.00 0.00 59 1018.1
20260506181604 15 291 3.2 9.7 0.00 0.00 0.00 59 1018.2
20260506181404 15 296 3.2 9.7 0.00 0.00 0.00 60 1018.2
20260506181204 15 290 1.6 9.7 0.00 0.00 0.00 60 1018.2
20260506181004 15 289 3.2 9.7 0.00 0.00 0.00 60 1018.2
20260506180825 15 291 1.6 9.7 0.00 0.00 0.00 60 1018.2
20260506180604 15 291 1.6 9.7 0.00 0.00 0.00 60 1018.2
20260506180425 15 276 1.6 9.7 0.00 0.00 0.00 61 1018.2
20260506180204 15 270 1.6 9.7 0.00 0.00 0.00 60 1018.2
20260506180005 15 266 1.6 8.0 0.00 0.00 0.00 61 1018.2
20260506175804 14 282 1.6 11.3 0.00 0.00 0.00 63 1018.2
20260506175604 14 284 3.2 11.3 0.00 0.00 0.00 63 1018.1
20260506175404 14 283 3.2 11.3 0.00 0.00 0.00 61 1018.2
20260506175204 14 288 3.2 11.3 0.00 0.00 0.00 63 1018.2
20260506175004 14 294 3.2 11.3 0.00 0.00 0.00 63 1018.2
20260506174804 14 292 3.2 9.7 0.00 0.00 0.00 63 1018.2
20260506174604 14 312 1.6 9.7 0.00 0.00 0.00 64 1018.1
20260506174404 14 344 1.6 9.7 0.00 0.00 0.00 65 1018.2
20260506174204 13 360 1.6 6.4 0.00 0.00 0.00 63 1018.2
20260506174004 13 279 1.6 6.4 0.00 0.00 0.00 64 1018.1
20260506173804 13 127 0.0 6.4 0.00 0.00 0.00 63 1018.1
20260506173604 13 289 1.6 6.4 0.00 0.00 0.00 64 1018.1
20260506173404 13 295 1.6 6.4 0.00 0.00 0.00 64 1018.1
20260506173204 13 294 1.6 8.0 0.00 0.00 0.00 65 1018.1
20260506173025 13 293 1.6 8.0 0.00 0.00 0.00 64 1018.2
20260506172804 13 293 1.6 8.0 0.00 0.00 0.00 65 1018.1
20260506172604 13 280 1.6 8.0 0.00 0.00 0.00 65 1018.1
20260506172404 13 277 1.6 8.0 0.00 0.00 0.00 64 1018.2
20260506172204 13 287 1.6 8.0 0.00 0.00 0.00 66 1018.2
20260506172004 13 285 1.6 9.7 0.00 0.00 0.00 67 1018.2
20260506171804 13 286 1.6 9.7 0.00 0.00 0.00 66 1018.2
20260506171625 13 289 1.6 9.7 0.00 0.00 0.00 67 1018.2
20260506171404 13 286 1.6 9.7 0.00 0.00 0.00 65 1018.3
20260506171204 13 270 0.0 9.7 0.00 0.00 0.00 66 1018.2
20260506171004 13 269 0.0 4.8 0.00 0.00 0.00 65 1018.2
20260506170825 13 234 0.0 4.8 0.00 0.00 0.00 65 1018.1
20260506170625 13 235 0.0 4.8 0.00 0.00 0.00 65 1018.2
20260506170404 13 235 0.0 4.8 0.00 0.00 0.00 66 1018.2
20260506170204 13 239 0.0 1.6 0.00 0.00 0.00 67 1018.1
20260506170004 12 278 0.0 6.4 0.00 0.00 0.00 68 1018.2
20260506165804 12 285 0.0 6.4 0.00 0.00 0.00 69 1018.1
20260506165605 12 286 0.0 6.4 0.00 0.00 0.00 68 1018.2
20260506165404 12 288 0.0 6.4 0.00 0.00 0.00 68 1018.2
20260506165204 12 286 1.6 9.7 0.00 0.00 0.00 68 1018.2
20260506165004 12 289 1.6 9.7 0.00 0.00 0.00 68 1018.2
20260506164804 12 287 1.6 9.7 0.00 0.00 0.00 68 1018.2
20260506164604 12 288 1.6 9.7 0.00 0.00 0.00 68 1018.2
20260506164404 12 287 1.6 9.7 0.00 0.00 0.00 69 1018.1
20260506164204 12 290 0.0 6.4 0.00 0.00 0.00 69 1018.1
20260506164004 12 284 0.0 6.4 0.00 0.00 0.00 68 1018.2
20260506163804 12 294 0.0 3.2 0.00 0.00 0.00 69 1018.2
20260506163604 12 284 0.0 6.4 0.00 0.00 0.00 69 1018.1
20260506163404 12 290 1.6 6.4 0.00 0.00 0.00 69 1018.2
20260506163204 11 289 1.6 8.0 0.00 0.00 0.00 69 1018.2
20260506163004 11 290 1.6 8.0 0.00 0.00 0.00 69 1018.1
20260506162825 11 288 1.6 8.0 0.00 0.00 0.00 68 1018.1
20260506162604 11 291 1.6 8.0 0.00 0.00 0.00 69 1018.1
20260506162404 12 288 1.6 8.0 0.00 0.00 0.00 68 1018.1
20260506162225 12 289 0.0 6.4 0.00 0.00 0.00 69 1018.1
20260506162004 12 281 0.0 6.4 0.00 0.00 0.00 68 1018.0
20260506161804 12 297 0.0 6.4 0.00 0.00 0.00 68 1018.1
20260506161604 12 329 0.0 1.6 0.00 0.00 0.00 68 1018.0
20260506161404 11 329 0.0 1.6 0.00 0.00 0.00 69 1017.9
20260506161204 11 305 0.0 1.6 0.00 0.00 0.00 69 1017.8
20260506161004 11 293 0.0 1.6 0.00 0.00 0.00 70 1017.8
20260506160825 11 293 0.0 1.6 0.00 0.00 0.00 68 1017.9
20260506160604 11 293 0.0 1.6 0.00 0.00 0.00 70 1017.8
20260506160404 11 323 0.0 1.6 0.00 0.00 0.00 69 1017.9
20260506160225 11 343 0.0 1.6 0.00 0.00 0.00 69 1017.8
20260506160004 11 9 0.0 1.6 0.00 0.00 0.00 68 1017.8
20260506155804 11 9 0.0 1.6 0.00 0.00 0.00 69 1017.8
20260506155604 11 9 0.0 1.6 0.00 0.00 0.00 68 1017.7
20260506155404 11 352 0.0 1.6 0.00 0.00 0.00 68 1017.7
20260506155204 11 0 0.0 0.0 0.00 0.00 0.00 68 1017.7
20260506155004 11 0 0.0 0.0 0.00 0.00 0.00 68 1017.7
20260506154804 11 327 0.0 1.6 0.00 0.00 0.00 69 1017.7
20260506154625 11 327 0.0 1.6 0.00 0.00 0.00 68 1017.7
20260506154404 11 327 0.0 1.6 0.00 0.00 0.00 67 1017.7
20260506154204 11 327 0.0 1.6 0.00 0.00 0.00 68 1017.7
20260506154025 11 327 0.0 1.6 0.00 0.00 0.00 67 1017.7
20260506153825 11 0 0.0 0.0 0.00 0.00 0.00 68 1017.7
20260506153604 11 0 0.0 0.0 0.00 0.00 0.00 69 1017.7
20260506153425 10 0 0.0 0.0 0.00 0.00 0.00 70 1017.7
20260506153204 10 0 0.0 0.0 0.00 0.00 0.00 69 1017.8
20260506153004 10 0 0.0 0.0 0.00 0.00 0.00 69 1017.7
20260506152804 10 0 0.0 0.0 0.00 0.00 0.00 69 1017.7
20260506152604 10 0 0.0 0.0 0.00 0.00 0.00 69 1017.7
20260506152404 10 0 0.0 0.0 0.00 0.00 0.00 70 1017.7
20260506152225 10 0 0.0 0.0 0.00 0.00 0.00 70 1017.7
20260506152004 10 0 0.0 0.0 0.00 0.00 0.00 73 1017.7
20260506151804 10 0 0.0 0.0 0.00 0.00 0.00 73 1017.7
20260506151604 10 0 0.0 0.0 0.00 0.00 0.00 72 1017.7
20260506151404 10 0 0.0 0.0 0.00 0.00 0.00 73 1017.7
20260506151204 10 0 0.0 0.0 0.00 0.00 0.00 72 1017.7
20260506151004 10 0 0.0 0.0 0.00 0.00 0.00 73 1017.7
20260506150804 10 0 0.0 0.0 0.00 0.00 0.00 73 1017.7
20260506150604 10 0 0.0 0.0 0.00 0.00 0.00 73 1017.7
20260506150404 10 0 0.0 0.0 0.00 0.00 0.00 73 1017.7
20260506150225 10 0 0.0 0.0 0.00 0.00 0.00 71 1017.7
20260506150004 10 0 0.0 0.0 0.00 0.00 0.00 71 1017.7
20260506145804 10 0 0.0 0.0 0.00 0.00 0.00 73 1017.7
20260506145604 10 0 0.0 0.0 0.00 0.00 0.00 74 1017.7
20260506145404 10 0 0.0 0.0 0.00 0.00 0.00 74 1017.7
20260506145225 10 0 0.0 0.0 0.00 0.00 0.00 76 1017.7
20260506145004 10 0 0.0 0.0 0.00 0.00 0.00 75 1017.7
20260506144804 10 0 0.0 0.0 0.00 0.00 0.00 75 1017.7
20260506144604 10 0 0.0 0.0 0.00 0.03 0.00 75 1017.7
20260506144404 10 0 0.0 0.0 0.00 0.03 0.00 76 1017.7
20260506144204 10 0 0.0 0.0 0.00 0.05 0.00 77 1017.7
20260506144004 10 0 0.0 0.0 0.00 0.05 0.00 77 1017.8
20260506143804 9 0 0.0 0.0 0.00 0.05 0.00 78 1017.9
20260506143604 9 0 0.0 0.0 0.00 0.05 0.00 80 1017.7
20260506143404 8 0 0.0 0.0 0.00 0.08 0.00 83 1017.7
20260506143204 8 0 0.0 0.0 0.00 0.08 0.00 83 1017.6
20260506143004 8 0 0.0 0.0 0.00 0.08 0.00 84 1017.6
20260506142804 8 0 0.0 0.0 0.00 0.10 0.00 85 1017.6
20260506142625 7 0 0.0 0.0 0.00 0.10 0.00 86 1017.6
20260506142404 7 0 0.0 0.0 0.00 0.13 0.00 87 1017.7
20260506142204 7 0 0.0 0.0 0.00 0.13 0.00 87 1017.7
20260506142004 7 0 0.0 0.0 0.00 0.15 0.00 88 1017.7
20260506141804 6 0 0.0 0.0 0.00 0.15 0.00 88 1017.6
20260506141604 6 0 0.0 0.0 0.00 0.15 0.00 89 1017.6
20260506141404 6 0 0.0 0.0 0.00 0.15 0.00 89 1017.6
20260506141204 6 0 0.0 0.0 0.00 0.15 0.00 89 1017.6
20260506141004 6 0 0.0 0.0 0.00 0.15 0.00 89 1017.6
20260506140804 6 0 0.0 0.0 0.00 0.15 0.00 89 1017.6
20260506140625 6 0 0.0 0.0 0.00 0.15 0.00 89 1017.6
20260506140404 6 0 0.0 0.0 0.00 0.15 0.00 89 1017.6
20260506140204 6 0 0.0 0.0 0.00 0.15 0.00 89 1017.5
20260506140025 6 0 0.0 0.0 0.00 0.15 0.00 90 1017.5
20260506135804 6 0 0.0 0.0 0.00 0.15 0.00 90 1017.5
20260506135625 6 0 0.0 0.0 0.00 0.15 0.00 90 1017.5
20260506135404 6 0 0.0 0.0 0.00 0.15 0.00 90 1017.5
20260506135225 6 0 0.0 0.0 0.00 0.15 0.00 91 1017.4
20260506135004 6 0 0.0 0.0 0.00 0.15 0.00 91 1017.3
20260506134804 6 0 0.0 0.0 0.00 0.15 0.00 90 1017.3
20260506134604 6 0 0.0 0.0 0.00 0.15 0.00 90 1017.3
20260506134404 6 0 0.0 0.0 0.00 0.15 0.00 90 1017.3
20260506134204 6 0 0.0 0.0 0.00 0.15 0.00 90 1017.3
20260506134004 6 0 0.0 0.0 0.00 0.15 0.00 90 1017.2
20260506133804 6 0 0.0 0.0 0.00 0.15 0.00 90 1017.2
20260506133604 6 0 0.0 0.0 0.00 0.15 0.00 90 1017.2
20260506133404 6 0 0.0 0.0 0.00 0.15 0.00 90 1017.2
20260506133204 6 0 0.0 0.0 0.00 0.15 0.00 90 1017.2
20260506133004 6 0 0.0 0.0 0.00 0.15 0.00 90 1017.2
20260506132804 6 0 0.0 0.0 0.00 0.15 0.00 90 1017.1
20260506132625 6 0 0.0 0.0 0.00 0.15 0.00 90 1017.0
20260506132404 6 0 0.0 0.0 0.00 0.15 0.00 90 1017.0
20260506132225 6 0 0.0 0.0 0.00 0.15 0.00 90 1017.0
20260506132004 6 0 0.0 0.0 0.00 0.15 0.00 90 1017.0
20260506131804 6 0 0.0 0.0 0.00 0.15 0.00 90 1017.0
20260506131604 6 0 0.0 0.0 0.00 0.15 0.00 90 1017.0
20260506131404 6 0 0.0 0.0 0.00 0.15 0.00 90 1017.0
20260506131204 6 0 0.0 0.0 0.00 0.15 0.00 90 1017.0
20260506131004 6 0 0.0 0.0 0.00 0.15 0.00 90 1017.0
20260506130804 6 0 0.0 0.0 0.00 0.15 0.00 90 1017.0
20260506130604 6 0 0.0 0.0 0.00 0.15 0.00 90 1017.0
20260506130404 6 0 0.0 0.0 0.00 0.15 0.00 90 1017.0
20260506130204 6 0 0.0 0.0 0.00 0.15 0.00 90 1016.9
20260506130004 6 0 0.0 0.0 0.00 0.15 0.00 90 1016.9
20260506125825 6 0 0.0 0.0 0.00 0.15 0.00 90 1016.8
20260506125625 6 0 0.0 0.0 0.00 0.15 0.00 90 1016.8
20260506125404 6 0 0.0 0.0 0.00 0.15 0.00 91 1016.8
20260506125204 6 0 0.0 0.0 0.00 0.15 0.00 91 1016.7
20260506125004 6 0 0.0 0.0 0.00 0.15 0.00 91 1016.7
20260506124804 6 0 0.0 0.0 0.00 0.15 0.00 92 1016.7
20260506124604 6 0 0.0 0.0 0.00 0.15 0.00 91 1016.7
20260506124404 6 0 0.0 0.0 0.00 0.15 0.00 91 1016.7
20260506124204 6 0 0.0 0.0 0.00 0.15 0.00 91 1016.6
20260506124025 6 86 0.0 3.2 0.00 0.15 0.00 91 1016.6
20260506123804 6 85 1.6 4.8 0.00 0.15 0.00 91 1016.6
20260506123604 6 85 1.6 4.8 0.00 0.15 0.00 91 1016.6
20260506123404 6 85 1.6 4.8 0.00 0.15 0.00 91 1016.5
20260506123204 6 85 1.6 4.8 0.00 0.15 0.00 91 1016.6
20260506123004 6 85 1.6 4.8 0.00 0.15 0.00 91 1016.6
20260506122804 6 88 0.0 3.2 0.00 0.15 0.00 91 1016.6
20260506122604 6 0 0.0 0.0 0.00 0.15 0.00 91 1016.6
20260506122404 6 0 0.0 0.0 0.00 0.15 0.00 91 1016.6
20260506122204 6 0 0.0 0.0 0.00 0.15 0.00 91 1016.7
20260506122004 6 0 0.0 0.0 0.00 0.15 0.00 91 1016.6
20260506121805 6 0 0.0 0.0 0.00 0.15 0.00 91 1016.6
20260506121625 6 0 0.0 0.0 0.00 0.15 0.00 90 1016.7
20260506121425 6 0 0.0 0.0 0.00 0.15 0.00 91 1016.6
20260506121204 6 0 0.0 0.0 0.00 0.15 0.00 90 1016.6
20260506121004 6 0 0.0 0.0 0.00 0.15 0.00 91 1016.6
20260506120804 6 0 0.0 0.0 0.00 0.15 0.00 91 1016.6
20260506120604 6 0 0.0 0.0 0.00 0.15 0.00 92 1016.6
20260506120425 6 0 0.0 0.0 0.00 0.15 0.00 92 1016.5
20260506120225 6 0 0.0 0.0 0.00 0.15 0.00 92 1016.6
20260506120004 6 0 0.0 0.0 0.00 0.15 0.00 92 1016.6
20260506115804 6 0 0.0 0.0 0.00 0.15 0.00 92 1016.5
20260506115604 6 0 0.0 0.0 0.00 0.15 0.00 92 1016.6
20260506115425 6 0 0.0 0.0 0.00 0.15 0.00 92 1016.6
20260506115204 6 0 0.0 0.0 0.00 0.15 0.00 92 1016.6
20260506115004 6 0 0.0 0.0 0.00 0.15 0.00 92 1016.5
20260506114804 6 0 0.0 0.0 0.00 0.15 0.00 92 1016.5
20260506114604 6 0 0.0 0.0 0.00 0.15 0.00 92 1016.6
20260506114404 6 0 0.0 0.0 0.00 0.15 0.00 92 1016.6
20260506114204 6 0 0.0 0.0 0.00 0.15 0.00 92 1016.5
20260506114004 6 0 0.0 0.0 0.00 0.15 0.00 92 1016.5
20260506113825 6 0 0.0 0.0 0.00 0.15 0.00 92 1016.5
20260506113604 6 0 0.0 0.0 0.00 0.15 0.00 92 1016.5
20260506113425 6 0 0.0 0.0 0.00 0.15 0.00 93 1016.5
20260506113204 6 103 0.0 1.6 0.00 0.15 0.00 93 1016.5
20260506113004 6 97 0.0 3.2 0.00 0.15 0.00 93 1016.5
20260506112804 6 97 0.0 3.2 0.00 0.15 0.00 93 1016.5
20260506112604 6 97 0.0 3.2 0.00 0.15 0.00 93 1016.5
20260506112425 6 97 0.0 3.2 0.00 0.15 0.00 93 1016.5
20260506112204 6 97 0.0 3.2 0.00 0.15 0.00 93 1016.5
20260506112004 6 0 0.0 0.0 0.00 0.15 0.00 93 1016.5
20260506111804 6 0 0.0 0.0 0.00 0.15 0.00 93 1016.6
20260506111625 6 0 0.0 0.0 0.00 0.15 0.00 93 1016.5
20260506111425 6 0 0.0 0.0 0.00 0.15 0.00 93 1016.5
20260506111204 6 0 0.0 0.0 0.00 0.15 0.00 93 1016.5
20260506111004 6 0 0.0 0.0 0.00 0.15 0.00 93 1016.5
20260506110804 6 0 0.0 0.0 0.00 0.15 0.00 93 1016.5
20260506110604 6 0 0.0 0.0 0.00 0.15 0.00 93 1016.5
20260506110404 6 0 0.0 0.0 0.00 0.15 0.00 93 1016.5
20260506110204 6 0 0.0 0.0 0.00 0.15 0.00 93 1016.5
20260506110004 6 0 0.0 0.0 0.00 0.15 0.00 93 1016.5
20260506105804 6 0 0.0 0.0 0.00 0.15 0.00 93 1016.5
20260506105625 6 0 0.0 0.0 0.00 0.15 0.00 93 1016.4
20260506105404 6 0 0.0 0.0 0.00 0.15 0.00 93 1016.5
20260506105204 6 0 0.0 0.0 0.00 0.15 0.00 93 1016.5
20260506105004 6 0 0.0 0.0 0.00 0.15 0.00 93 1016.4
20260506104804 6 0 0.0 0.0 0.00 0.15 0.00 93 1016.5
20260506104625 6 0 0.0 0.0 0.00 0.15 0.00 93 1016.5
20260506104404 6 0 0.0 0.0 0.00 0.15 0.00 93 1016.5
20260506104225 6 0 0.0 0.0 0.00 0.15 0.00 93 1016.5
20260506104025 6 0 0.0 0.0 0.00 0.15 0.00 93 1016.5
20260506103804 6 0 0.0 0.0 0.00 0.15 0.00 93 1016.5
20260506103625 6 0 0.0 0.0 0.00 0.15 0.00 93 1016.5
20260506103404 6 0 0.0 0.0 0.00 0.15 0.00 93 1016.5
20260506103204 6 0 0.0 0.0 0.00 0.15 0.00 93 1016.5
20260506103004 6 0 0.0 0.0 0.00 0.15 0.00 93 1016.5
20260506102825 6 0 0.0 0.0 0.00 0.15 0.00 93 1016.5
20260506102625 6 0 0.0 0.0 0.00 0.15 0.00 93 1016.6
20260506102404 6 0 0.0 0.0 0.00 0.15 0.00 92 1016.5
20260506102225 6 0 0.0 0.0 0.00 0.15 0.00 92 1016.5
20260506102004 6 0 0.0 0.0 0.00 0.15 0.00 92 1016.6
20260506101825 6 0 0.0 0.0 0.00 0.15 0.00 92 1016.5
20260506101604 6 0 0.0 0.0 0.00 0.15 0.00 92 1016.5
20260506101404 6 0 0.0 0.0 0.00 0.15 0.00 92 1016.5
20260506101204 6 0 0.0 0.0 0.00 0.15 0.00 92 1016.4
20260506101004 6 0 0.0 0.0 0.00 0.15 0.00 92 1016.5
20260506100804 6 0 0.0 0.0 0.00 0.15 0.00 92 1016.5
20260506100604 6 0 0.0 0.0 0.00 0.15 0.00 92 1016.5
20260506100404 6 0 0.0 0.0 0.00 0.15 0.00 92 1016.5
20260506100204 6 0 0.0 0.0 0.00 0.15 0.00 92 1016.5
20260506100004 6 0 0.0 0.0 0.00 0.15 0.00 92 1016.5
20260506095804 6 0 0.0 0.0 0.00 0.15 0.00 92 1016.5
20260506095625 6 0 0.0 0.0 0.00 0.15 0.00 92 1016.6
20260506095404 6 0 0.0 0.0 0.00 0.15 0.00 92 1016.6
20260506095204 6 0 0.0 0.0 0.00 0.15 0.00 92 1016.5
20260506095004 6 0 0.0 0.0 0.00 0.15 0.00 92 1016.5
20260506094804 6 0 0.0 0.0 0.00 0.15 0.00 92 1016.6
20260506094604 6 0 0.0 0.0 0.00 0.15 0.00 92 1016.5
20260506094404 6 0 0.0 0.0 0.00 0.15 0.00 92 1016.5
20260506094204 6 0 0.0 0.0 0.00 0.15 0.00 92 1016.5
20260506094004 6 0 0.0 0.0 0.00 0.15 0.00 92 1016.5
20260506093825 6 0 0.0 0.0 0.00 0.15 0.00 92 1016.6
20260506093604 6 104 0.0 1.6 0.00 0.15 0.00 92 1016.6
20260506093404 6 97 0.0 4.8 0.00 0.15 0.00 92 1016.5
20260506093204 6 94 1.6 4.8 0.00 0.15 0.00 92 1016.4
20260506093025 6 94 1.6 4.8 0.00 0.15 0.00 91 1016.4
20260506092804 6 94 1.6 4.8 0.00 0.15 0.00 91 1016.4
20260506092604 6 92 1.6 4.8 0.00 0.15 0.00 91 1016.4
20260506092404 6 88 0.0 4.8 0.00 0.15 0.00 91 1016.5
20260506092204 6 0 0.0 0.0 0.00 0.15 0.00 92 1016.5
20260506092025 6 99 0.0 1.6 0.00 0.15 0.00 91 1016.5
20260506091804 6 99 0.0 1.6 0.00 0.15 0.00 91 1016.5
20260506091604 6 99 0.0 1.6 0.00 0.15 0.00 91 1016.6
20260506091404 6 99 0.0 1.6 0.00 0.15 0.00 91 1016.6
20260506091204 6 99 0.0 1.6 0.00 0.15 0.00 91 1016.7
20260506091004 6 0 0.0 0.0 0.00 0.15 0.00 91 1016.7
20260506090804 6 0 0.0 0.0 0.00 0.15 0.00 91 1016.7
20260506090625 6 0 0.0 0.0 0.00 0.15 0.00 91 1016.7
20260506090425 6 0 0.0 0.0 0.00 0.15 0.00 91 1016.8
20260506090204 6 0 0.0 0.0 0.00 0.15 0.00 91 1016.8
20260506090004 6 0 0.0 0.0 0.00 0.15 0.00 91 1016.9
20260506085825 6 0 0.0 0.0 0.00 0.15 0.00 90 1016.8
20260506085625 6 0 0.0 0.0 0.00 0.15 0.00 90 1016.8
20260506085404 6 0 0.0 0.0 0.00 0.15 0.00 90 1016.9
20260506085204 6 0 0.0 0.0 0.00 0.15 0.00 90 1017.0
20260506085025 6 0 0.0 0.0 0.00 0.15 0.00 90 1017.0
20260506084804 6 0 0.0 0.0 0.00 0.15 0.00 90 1017.0
20260506084604 6 0 0.0 0.0 0.00 0.15 0.00 89 1017.0
20260506084425 6 0 0.0 0.0 0.00 0.15 0.00 89 1016.9
20260506084204 6 0 0.0 0.0 0.00 0.15 0.00 89 1017.0
20260506084004 7 0 0.0 0.0 0.00 0.15 0.00 89 1017.0
20260506083804 7 0 0.0 0.0 0.00 0.18 0.00 89 1017.1
20260506083604 7 0 0.0 0.0 0.00 0.18 0.00 89 1017.1
20260506083404 7 0 0.0 0.0 0.00 0.18 0.00 89 1017.0
20260506083204 7 0 0.0 0.0 0.00 0.18 0.00 89 1017.0
20260506083004 7 0 0.0 0.0 0.00 0.18 0.00 88 1017.0
20260506082804 7 0 0.0 0.0 0.00 0.18 0.00 88 1017.0
20260506082604 7 0 0.0 0.0 0.00 0.18 0.00 88 1017.0
20260506082404 7 0 0.0 0.0 0.00 0.18 0.00 88 1017.0
20260506082203 7 0 0.0 0.0 0.00 0.18 0.00 87 1017.0
20260506082004 7 0 0.0 0.0 0.00 0.18 0.00 87 1017.0
20260506081825 7 0 0.0 0.0 0.00 0.18 0.00 87 1016.9
20260506081625 7 0 0.0 0.0 0.00 0.18 0.00 87 1016.9
20260506081403 7 0 0.0 0.0 0.00 0.18 0.00 86 1016.9
20260506081203 7 0 0.0 0.0 0.00 0.18 0.00 86 1017.0
20260506081004 7 0 0.0 0.0 0.00 0.18 0.00 86 1016.9
20260506080804 7 0 0.0 0.0 0.00 0.20 0.00 86 1016.9
20260506080604 7 0 0.0 0.0 0.00 0.20 0.00 86 1017.0
20260506080404 8 0 0.0 0.0 0.00 0.20 0.00 85 1017.0
20260506080204 8 0 0.0 0.0 0.00 0.20 0.00 85 1017.0
20260506073404 8 0 0.0 0.0 0.00 0.23 0.00 84 1017.2
20260506073204 8 0 0.0 0.0 0.00 0.23 0.00 84 1017.3
20260506073004 8 0 0.0 0.0 0.00 0.23 0.00 84 1017.3
20260506072825 8 0 0.0 0.0 0.00 0.23 0.00 84 1017.3
20260506072604 8 0 0.0 0.0 0.00 0.23 0.00 84 1017.3
20260506072403 8 0 0.0 0.0 0.00 0.23 0.00 84 1017.3
20260506072204 8 0 0.0 0.0 0.00 0.23 0.00 83 1017.3
20260506072025 8 0 0.0 0.0 0.00 0.23 0.00 83 1017.3
20260506071804 8 0 0.0 0.0 0.00 0.23 0.00 83 1017.3
20260506071604 8 0 0.0 0.0 0.00 0.23 0.00 83 1017.3
20260506071404 8 0 0.0 0.0 0.00 0.23 0.00 83 1017.4
20260506071225 8 301 0.0 4.8 0.00 0.23 0.00 83 1017.4
20260506071004 8 301 0.0 4.8 0.00 0.23 0.00 83 1017.3
20260506070804 8 301 0.0 4.8 0.00 0.23 0.00 83 1017.3
20260506070625 8 301 0.0 4.8 0.00 0.23 0.00 83 1017.3
20260506070404 8 301 0.0 4.8 0.00 0.23 0.00 83 1017.3
20260506070204 8 305 0.0 3.2 0.00 0.23 0.00 83 1017.3
20260506062404 9 0 0.0 0.0 0.00 0.23 0.23 82 1016.9
20260506062225 9 0 0.0 0.0 0.00 0.23 0.23 81 1016.9
20260506062025 9 0 0.0 0.0 0.00 0.23 0.23 81 1016.9
20260506061804 9 0 0.0 0.0 0.00 0.23 0.23 81 1016.9
20260506061604 9 345 0.0 4.8 0.00 0.23 0.23 81 1016.9
20260506061404 9 339 0.0 4.8 0.00 0.23 0.23 81 1016.9
20260506061204 9 334 0.0 6.4 0.00 0.23 0.23 81 1016.9
20260506061004 9 330 0.0 6.4 0.00 0.23 0.23 80 1016.9
20260506060825 9 326 1.6 6.4 0.00 0.23 0.23 80 1016.9
20260506060604 9 324 1.6 6.4 0.00 0.23 0.23 80 1016.9
20260506060404 9 316 0.0 6.4 0.00 0.23 0.23 79 1016.9
20260506060204 9 313 0.0 6.4 0.00 0.23 0.23 79 1016.8
20260506051404 10 296 0.0 4.8 0.00 0.23 0.23 76 1016.5
20260506051204 10 0 0.0 0.0 0.00 0.23 0.23 76 1016.4
20260506051003 10 0 0.0 0.0 0.00 0.23 0.23 76 1016.4
20260506050804 10 0 0.0 0.0 0.00 0.23 0.23 76 1016.4
20260506050604 10 289 0.0 4.8 0.00 0.23 0.23 75 1016.4
20260506050404 10 289 0.0 4.8 0.00 0.23 0.23 75 1016.3
20260506050204 10 289 0.0 4.8 0.00 0.23 0.23 75 1016.3
20260506045004 10 286 1.6 6.4 0.00 0.23 0.23 75 1016.1
20260506044804 10 286 1.6 6.4 0.00 0.23 0.23 74 1016.1
20260506044603 10 287 1.6 6.4 0.00 0.23 0.23 74 1016.1
20260506044425 10 287 1.6 6.4 0.00 0.23 0.23 74 1016.1
20260506044204 10 303 1.6 6.4 0.00 0.23 0.23 74 1016.0
20260506044025 10 307 1.6 6.4 0.00 0.23 0.23 74 1016.0
20260506043804 10 309 1.6 6.4 0.00 0.23 0.23 74 1016.0
20260506043625 10 311 1.6 6.4 0.00 0.23 0.23 74 1016.0
20260506043404 10 311 1.6 6.4 0.00 0.23 0.23 73 1016.0
20260506043204 10 300 1.6 8.0 0.00 0.23 0.23 73 1016.0
20260506043003 10 302 1.6 8.0 0.00 0.23 0.23 73 1015.9
20260506042805 10 302 3.2 8.0 0.00 0.23 0.23 73 1015.9
20260506042604 10 302 3.2 8.0 0.00 0.23 0.23 73 1015.9
20260506042425 10 302 3.2 8.0 0.00 0.23 0.23 73 1015.9
20260506042203 10 309 1.6 8.0 0.00 0.23 0.23 72 1015.9
20260506042004 10 308 1.6 8.0 0.00 0.23 0.23 72 1015.8
20260506041803 10 306 1.6 8.0 0.00 0.23 0.23 72 1015.8
20260506041604 10 307 1.6 8.0 0.00 0.23 0.23 72 1015.7
20260506041425 10 299 0.0 8.0 0.00 0.23 0.23 72 1015.7
20260506041204 10 281 0.0 4.8 0.00 0.23 0.23 72 1015.7
20260506041004 10 281 0.0 4.8 0.00 0.23 0.23 72 1015.7
20260506040803 10 284 0.0 4.8 0.00 0.23 0.23 72 1015.7
20260506040604 10 296 1.6 8.0 0.00 0.23 0.23 72 1015.7
20260506040404 10 296 1.6 8.0 0.00 0.23 0.23 72 1015.7
20260506040204 10 296 1.6 8.0 0.00 0.23 0.23 72 1015.6
20260506040004 10 294 1.6 8.0 0.00 0.23 0.23 72 1015.6
20260506035804 10 293 3.2 8.0 0.00 0.23 0.23 71 1015.6
20260506035603 10 288 1.6 8.0 0.00 0.23 0.23 71 1015.6
20260506035404 10 287 1.6 8.0 0.00 0.23 0.23 71 1015.5
20260506035225 10 287 1.6 6.4 0.00 0.23 0.23 71 1015.5
20260506035004 10 286 1.6 6.4 0.00 0.23 0.23 72 1015.5
20260506034804 10 285 1.6 6.4 0.00 0.23 0.23 72 1015.4
20260506034603 10 288 1.6 6.4 0.00 0.23 0.23 71 1015.4
20260506034404 10 290 1.6 6.4 0.00 0.23 0.23 71 1015.4
20260506034205 10 287 1.6 6.4 0.00 0.23 0.23 72 1015.4
20260506034004 10 289 1.6 6.4 0.00 0.23 0.23 71 1015.3
20260506033804 10 289 1.6 6.4 0.00 0.23 0.23 71 1015.3
20260506033604 10 290 1.6 6.4 0.00 0.23 0.23 71 1015.2
20260506033425 10 290 1.6 6.4 0.00 0.23 0.23 71 1015.2
20260506033204 10 291 1.6 6.4 0.00 0.23 0.23 71 1015.2
20260506033025 10 292 1.6 8.0 0.00 0.23 0.23 71 1015.2
20260506032825 10 294 1.6 11.3 0.00 0.23 0.23 71 1015.2
20260506032603 10 296 1.6 11.3 0.00 0.23 0.23 71 1015.2
20260506032403 10 296 1.6 11.3 0.00 0.23 0.23 71 1015.2
20260506032204 10 296 1.6 11.3 0.00 0.23 0.23 70 1015.1
20260506032004 10 295 0.0 11.3 0.00 0.23 0.23 71 1015.1
20260506031825 10 288 0.0 8.0 0.00 0.23 0.23 71 1015.1
20260506031625 11 288 1.6 8.0 0.00 0.23 0.23 71 1015.1
20260506031404 11 289 1.6 8.0 0.00 0.23 0.23 71 1015.0
20260506031203 11 289 1.6 8.0 0.00 0.23 0.23 70 1015.0
20260506031004 11 290 1.6 8.0 0.00 0.23 0.23 70 1014.9
20260506030804 11 289 1.6 6.4 0.00 0.23 0.23 70 1014.9
20260506030604 11 291 3.2 9.7 0.00 0.23 0.23 70 1014.9
20260506030404 11 292 3.2 9.7 0.00 0.23 0.23 70 1014.8
20260506030204 11 291 1.6 9.7 0.00 0.23 0.23 70 1014.8
20260506030004 11 294 1.6 9.7 0.00 0.23 0.23 70 1014.7
20260506025803 11 295 3.2 9.7 0.00 0.23 0.23 70 1014.7
20260506025625 11 292 1.6 8.0 0.00 0.23 0.23 70 1014.6
20260506025403 11 294 1.6 8.0 0.00 0.23 0.23 70 1014.6
20260506025204 11 295 1.6 8.0 0.00 0.23 0.23 70 1014.6
20260506025004 11 291 1.6 8.0 0.00 0.23 0.23 70 1014.5
20260506024804 11 294 0.0 4.8 0.00 0.23 0.23 70 1014.6
20260506024625 11 308 0.0 4.8 0.00 0.23 0.23 70 1014.5
20260506024404 11 293 0.0 1.6 0.00 0.23 0.23 70 1014.5
20260506024203 11 282 0.0 6.4 0.00 0.23 0.23 70 1014.4
20260506024004 11 289 0.0 8.0 0.00 0.23 0.23 70 1014.4
20260506023804 11 289 1.6 8.0 0.00 0.23 0.23 70 1014.4
20260506023604 11 298 1.6 8.0 0.00 0.23 0.23 70 1014.4
20260506023403 11 300 1.6 8.0 0.00 0.23 0.23 70 1014.3
20260506023204 11 302 1.6 8.0 0.00 0.23 0.23 70 1014.3
20260506023004 11 301 1.6 8.0 0.00 0.23 0.23 70 1014.3
20260506022825 11 304 1.6 8.0 0.00 0.23 0.23 70 1014.3
20260506022604 11 309 1.6 8.0 0.00 0.23 0.23 71 1014.2
20260506022404 11 312 1.6 8.0 0.00 0.23 0.23 70 1014.2
20260506022204 11 310 1.6 8.0 0.00 0.23 0.23 70 1014.1
20260506022003 11 312 1.6 8.0 0.00 0.23 0.23 70 1014.0
20260506021804 11 313 1.6 8.0 0.00 0.23 0.23 70 1014.0
20260506021625 11 304 1.6 11.3 0.00 0.23 0.23 70 1014.0
20260506021403 11 295 3.2 11.3 0.00 0.23 0.23 70 1014.0